Flag for Germany Weather for the Past 2 Weeks in Vaihingen an der Enz, Baden-Württemberg, Germany

Now
45 °F

Passing clouds.


Feels Like: 39 °F
Forecast: 41 / 64 °F
Wind: 10 mph from Northwest

Location: Stuttgart-Echterdingen

Current Time: May 1, 2016 at 5:08:25 AM

Latest Report: May 1, 2016 at 4:20 AM


Visibility: 6 mi

Pressure: 29.95 "Hg

Humidity: 93%

Dew Point: 43 °F

Location of Vaihingen an der EnzLocation

Historic Weather in Vaihingen an der Enz — Graph

°F

Vaihingen an der Enz Temperature Yesterday

Maximum temperature yesterday: 61 °F (at 2:20 PM)
Minimum temperature yesterday: 34 °F (at 5:50 AM)
Average temperature yesterday: 49 °F

High & Low Weather Summary for the Past Weeks

 TemperatureHumidityPressure
High68 °F (Apr 21, 3:50 PM)100% (Apr 16, 4:20 AM)30.39 "Hg (Apr 16, 4:20 AM)
Low30 °F (Apr 29, 3:50 AM)24% (Apr 21, 6:20 PM)29.56 "Hg (Apr 26, 5:50 AM)
Average46 °F73%29.97 "Hg
* Reported Apr 16 4:20 AM — May 1 4:20 AM, Vaihingen an der Enz, Weather by CustomWeather, © 2016

Note: Actual official high and low records may vary slightly from our data, if they occured in-between our weather recording intervals... More about our weather records

Advertising

Vaihingen an der Enz Weather History for the Previous 24 Hours

Scroll right to see more
 ConditionsComfort  
Time TempWeatherWind HumidityBarometerVisibility
4:20 AM
Sun, May 1
45 °FPassing clouds.10 mph93%29.95 "Hg6 mi
3:50 AM45 °FPassing clouds.12 mph93%29.95 "Hg6 mi
3:20 AM46 °FPassing clouds.12 mph87%29.92 "Hg6 mi
2:50 AM46 °FPassing clouds.10 mph93%29.95 "Hg6 mi
2:20 AM46 °FPassing clouds.9 mph93%29.92 "Hg6 mi
1:50 AM46 °FLight rain. Passing clouds.15 mph93%29.92 "Hg6 mi
1:20 AM46 °FLight rain. Passing clouds.13 mph93%29.95 "HgN/A
12:50 AM46 °FLight rain. Passing clouds.9 mph93%29.95 "HgN/A
12:20 AM48 °FSprinkles. Partly cloudy.9 mph87%29.95 "HgN/A
11:50 PM
Sat, Apr 30
48 °FSprinkles. Partly cloudy.5 mph87%29.95 "HgN/A
11:20 PM48 °FSprinkles. Passing clouds.10 mph87%29.92 "HgN/A
10:50 PM50 °FPassing clouds.5 mph76%29.95 "HgN/A
10:20 PM50 °FPassing clouds.10 mph76%29.92 "HgN/A
9:50 PM52 °FPassing clouds.9 mph72%29.92 "HgN/A
9:20 PM52 °FPartly sunny.14 mph67%29.89 "HgN/A
8:50 PM54 °FPartly sunny.12 mph67%29.89 "HgN/A
8:20 PM54 °FBroken clouds.8 mph67%29.89 "HgN/A
7:50 PM54 °FBroken clouds.9 mph67%29.89 "HgN/A
7:20 PM54 °FBroken clouds.10 mph72%29.89 "HgN/A
6:50 PM55 °FSprinkles. Broken clouds.10 mph63%29.92 "HgN/A
6:20 PM59 °FBroken clouds.12 mph51%29.89 "HgN/A
5:50 PM61 °FBroken clouds.7 mph45%29.89 "HgN/A
5:20 PM61 °FBroken clouds.12 mph45%29.89 "HgN/A
4:50 PM61 °FBroken clouds.12 mph42%29.89 "HgN/A
4:20 PM61 °FPartly sunny.10 mph39%29.92 "HgN/A
3:50 PM61 °FPassing clouds.9 mph39%29.92 "HgN/A
3:20 PM61 °FPassing clouds.10 mph39%29.92 "HgN/A
2:50 PM61 °FPassing clouds.8 mph42%29.95 "HgN/A
2:20 PM61 °FPassing clouds.8 mph42%29.95 "HgN/A
1:50 PM59 °FPassing clouds.6 mph45%29.95 "HgN/A
1:20 PM59 °FPartly sunny.3 mph45%29.98 "HgN/A
12:50 PM57 °FBroken clouds.3 mph44%29.98 "HgN/A
12:20 PM55 °FBroken clouds.6 mph47%29.98 "HgN/A
11:20 AM54 °FBroken clouds.2 mph58%30.01 "HgN/A
10:20 AM50 °FBroken clouds.2 mph67%30.01 "HgN/A
9:50 AM46 °FSunny.2 mph76%30.01 "Hg10 mi
9:20 AM43 °FSunny.1 mph81%30.04 "Hg10 mi
8:50 AM41 °FPassing clouds.3 mph81%30.04 "HgN/A
8:20 AM39 °FSunny.1 mph87%30.04 "Hg10 mi
7:50 AM37 °FSunny.2 mph93%30.04 "Hg10 mi
7:20 AM36 °FSunny.1 mph93%30.01 "Hg10 mi
6:50 AM34 °FClear.2 mph93%30.01 "Hg10 mi
6:20 AM34 °FClear.1 mph93%30.01 "Hg10 mi
5:50 AM34 °FClear.1 mph93%30.01 "Hg10 mi
5:20 AM36 °FClear.1 mph87%30.01 "Hg10 mi
Weather by CustomWeather, © 2016

See weather overviewHow to use our weather pages